Weather History for Carcassonne, France

Change the Weather History Date:

Tuesday, September 11, 2012

  Actual Average (LFMP) Record (LFMP)
Temperature  
Mean Temperature 78 °F -  
Max Temperature 86 °F 76 °F 86 °F (1999)
Min Temperature 71 °F 61 °F 53 °F (1996)
Cooling Degree Days 14    
Growing Degree Days 28 (Base 50)    
Moisture  
Dew Point 66 °F    
Average Humidity 73    
Maximum Humidity 88    
Minimum Humidity 45    
Precipitation  
Precipitation 0.00 in - - ()
Sea Level Pressure  
Sea Level Pressure 30.04 in    
Wind  
Wind Speed 6 mph ()    
Max Wind Speed 13 mph    
Max Gust Speed -    
Visibility 5.9 miles    
Events Rain , Thunderstorm    
Averages and records for this station are not official NWS values.
T = Trace of Precipitation, MM = Missing Value Source: Averaged Metar Reports

Daily Weather History Graph

Daily Weather History Graph

Search for Another Location

Airport:

Trip Planner

Search our weather history database for the weather conditions in past years. The results will help you decide how hot, cold, wet, or windy it might be!

Date:

Astronomy

Sep. 11, 2012 Rise Set
Actual Time 7:26 AM CEST 8:07 PM CEST
Civil Twilight 6:57 AM CEST 8:36 PM CEST
Nautical Twilight 6:23 AM CEST 9:10 PM CEST
Astronomical Twilight 5:47 AM CEST 9:45 PM CEST
Moon 2:22 AM CEST (9/11) 5:13 PM CEST (9/11)
Length of Visible Light 13h 38m
Length of Day
12h 41m
Waning Crescent, 24% of the Moon is Illuminated
Sep 11
Waning Crescent
Sep 16
New
Sep 22
First Quarter
Sep 30
Full
Oct 8
Last Quarter

Hourly Weather History & Observations

Time (CEST) Temp. Heat Index Dew Point Humidity Pressure Visibility Wind Dir Wind Speed Gust Speed Precip Events Conditions
12:00 AM 71.6 °F - 68.0 °F 88% 30.01 in 6.2 mi East 10.4 mph - N/A   Overcast
12:30 AM 71.6 °F - 68.0 °F 88% 30.01 in 6.2 mi East 12.7 mph - N/A   Overcast
1:00 AM 71.6 °F - 68.0 °F 88% 30.01 in 5.6 mi East 9.2 mph - N/A   Overcast
1:30 AM 71.6 °F - 68.0 °F 88% 30.01 in 5.6 mi East 10.4 mph - N/A   Overcast
2:00 AM 71.6 °F - 68.0 °F 88% 30.01 in 5.6 mi East 11.5 mph - N/A   Overcast
2:30 AM 71.6 °F - 68.0 °F 88% 30.01 in 5.6 mi ESE 8.1 mph - N/A   Overcast
3:00 AM 71.6 °F - 68.0 °F 88% 30.01 in 6.2 mi ESE 8.1 mph - N/A   Overcast
3:30 AM 71.6 °F - 66.2 °F 83% 30.04 in 6.2 mi ESE 5.8 mph - N/A   Overcast
4:00 AM 71.6 °F - 66.2 °F 83% 30.04 in 6.2 mi East 6.9 mph - N/A   Overcast
4:30 AM 71.6 °F - 66.2 °F 83% 30.04 in 6.2 mi East 6.9 mph - N/A   Overcast
5:00 AM 71.6 °F - 66.2 °F 83% 30.04 in 6.2 mi ESE 4.6 mph - N/A   Overcast
5:30 AM 71.6 °F - 66.2 °F 83% 30.04 in 6.2 mi ESE 3.5 mph - N/A   Overcast
6:00 AM 71.6 °F - 66.2 °F 83% 30.04 in 5.6 mi Variable 2.3 mph - N/A   Overcast
6:30 AM 71.6 °F - 66.2 °F 83% 30.04 in 5.0 mi Variable 2.3 mph - N/A   Mostly Cloudy
7:00 AM 71.6 °F - 66.2 °F 83% 30.04 in 5.6 mi Variable 2.3 mph - N/A   Overcast
7:30 AM 71.6 °F - 66.2 °F 83% 30.04 in 5.6 mi Calm Calm - N/A   Mostly Cloudy
8:00 AM 71.6 °F - 66.2 °F 83% 30.04 in 5.0 mi Calm Calm - N/A   Mostly Cloudy
8:30 AM 71.6 °F - 66.2 °F 83% 30.06 in 6.2 mi Calm Calm - N/A   Overcast
9:00 AM 71.6 °F - 66.2 °F 83% 30.06 in 6.2 mi Calm Calm - N/A   Overcast
9:30 AM 73.4 °F - 66.2 °F 78% 30.06 in 6.2 mi ESE 4.6 mph - N/A   Overcast
10:00 AM 75.2 °F - 66.2 °F 73% 30.06 in 6.2 mi ESE 4.6 mph - N/A   Scattered Clouds
10:30 AM 77.0 °F - 66.2 °F 69% 30.06 in 6.2 mi East 4.6 mph - N/A   Mostly Cloudy
11:00 AM 77.0 °F - 66.2 °F 69% 30.06 in 6.2 mi East 6.9 mph - N/A   Scattered Clouds
11:30 AM 78.8 °F - 64.4 °F 61% 30.06 in 6.2 mi East 6.9 mph - N/A   Partly Cloudy
12:00 PM 78.8 °F - 64.4 °F 61% 30.06 in 6.2 mi East 8.1 mph - N/A   Partly Cloudy
12:30 PM 80.6 °F 82.3 °F 64.4 °F 58% 30.06 in 6.2 mi East 8.1 mph - N/A   Unknown
1:00 PM 82.4 °F 83.4 °F 62.6 °F 51% 30.06 in 6.2 mi Variable 4.6 mph - N/A   Unknown
1:30 PM 82.4 °F 83.4 °F 62.6 °F 51% 30.04 in 6.2 mi ESE 5.8 mph - N/A   Scattered Clouds
2:00 PM 84.2 °F 85.0 °F 62.6 °F 48% 30.04 in 6.2 mi East 8.1 mph - N/A   Unknown
2:30 PM 84.2 °F 85.0 °F 62.6 °F 48% 30.04 in 6.2 mi Variable 5.8 mph - N/A   Unknown
3:00 PM 84.2 °F 85.0 °F 62.6 °F 48% 30.04 in 6.2 mi ENE 6.9 mph - N/A   Unknown
3:30 PM 84.2 °F 85.0 °F 62.6 °F 48% 30.01 in 6.2 mi Variable 5.8 mph - N/A   Unknown
4:00 PM 86.0 °F 86.6 °F 62.6 °F 45% 30.01 in 6.2 mi East 6.9 mph - N/A   Unknown
4:30 PM 86.0 °F 86.6 °F 62.6 °F 45% 30.01 in 6.2 mi ESE 5.8 mph - N/A   Partly Cloudy
5:00 PM 86.0 °F 86.6 °F 62.6 °F 45% 30.01 in 6.2 mi ESE 5.8 mph - N/A   Unknown
5:30 PM 86.0 °F 86.6 °F 62.6 °F 45% 30.01 in 6.2 mi Variable 2.3 mph - N/A   Partly Cloudy
6:00 PM 84.2 °F 85.0 °F 62.6 °F 48% 30.01 in 6.2 mi ENE 6.9 mph - N/A Thunderstorm Unknown
6:30 PM 80.6 °F 83.9 °F 69.8 °F 70% 30.01 in 1.1 mi Variable 3.5 mph - N/A Rain , Thunderstorm Heavy Thunderstorms and Rain
7:00 PM 75.2 °F - 69.8 °F 83% 30.01 in 6.2 mi Variable 2.3 mph - N/A   Mostly Cloudy
7:30 PM 77.0 °F - 68.0 °F 74% 30.01 in 6.2 mi East 5.8 mph - N/A   Partly Cloudy
8:00 PM 75.2 °F - 69.8 °F 83% 30.04 in 6.2 mi Variable 2.3 mph - N/A   Mostly Cloudy
8:30 PM 75.2 °F - 68.0 °F 78% 30.04 in 5.6 mi Variable 2.3 mph - N/A   Scattered Clouds
9:00 PM 73.4 °F - 66.2 °F 78% 30.04 in 6.2 mi ESE 4.6 mph - N/A   Unknown
9:30 PM 73.4 °F - 68.0 °F 83% 30.06 in 6.2 mi Variable 1.2 mph - N/A   Overcast
10:00 PM 71.6 °F - 68.0 °F 88% 30.04 in 5.6 mi Variable 1.2 mph - N/A   Unknown
10:30 PM 71.6 °F - 68.0 °F 88% 30.06 in 6.2 mi Variable 2.3 mph - N/A   Partly Cloudy
11:00 PM 71.6 °F - 68.0 °F 88% 30.06 in 6.2 mi Calm Calm - N/A   Overcast
11:30 PM 71.6 °F - 68.0 °F 88% 30.06 in 3.7 mi Calm Calm - N/A   Mostly Cloudy